Flag for U.S.A. Weather past 2 weeks in Amarillo, Texas, U.S.A.

Now
51 °F

Clear.


Feels Like: 49 °F
Forecast: 41 / 72 °F
Wind: 7 mph from Southwest

Location: Amarillo International Airport

Current Time: Apr 18, 2015 at 12:38:19 AM

Latest Report: Apr 17, 2015 at 11:53 PM


Visibility: 8 mi

Pressure: 29.90 "Hg

Humidity: 96%

Dew point: 50 °F

Location of AmarilloLocation

Historic Weather in Amarillo — Graph

°F

Amarillo temperature yesterday

Maximum temperature yesterday: 72 °F (at 4:53 PM)
Minimum temperature yesterday: 47 °F (at 5:53 AM)
Average temperature yesterday: 58 °F

Past Weeks' High & Low Weather Summary

 TemperatureHumidityPressure
High87 °F (Apr 8, 4:53 PM)97% (Apr 17, 2:53 AM)30.41 "Hg (Apr 17, 2:53 AM)
Low33 °F (Apr 10, 4:53 AM)8% (Apr 6, 11:53 AM)29.46 "Hg (Apr 8, 9:53 PM)
Average59 °F47%29.89 "Hg
* Reported Apr 2 10:53 PM — Apr 17 10:53 PM, Amarillo, Weather by CustomWeather, © 2015

Note: Actual official high and low records may vary slightly from our data, if they occured in-between our weather recording intervals... More about our weather records

Advertising

Amarillo weather history for previous 24 hours

 ConditionsComfort  
Time TempWeatherWind HumidityBarometerVisibility
10:53 PM
Fri, Apr 17
54 °FClear.8 mph97%29.88 "Hg10 mi
9:53 PM56 °FPassing clouds.13 mph93%29.90 "Hg10 mi
8:53 PM59 °FSunny.16 mph78%29.86 "Hg10 mi
7:53 PM64 °FSunny.14 mph56%29.83 "Hg10 mi
6:53 PM67 °FSunny.18 mph51%29.82 "Hg10 mi
5:53 PM69 °FSunny.20 mph39%29.82 "Hg10 mi
4:53 PM72 °FSunny.14 mph13%29.81 "Hg10 mi
3:53 PM71 °FSunny.13 mph14%29.83 "Hg10 mi
2:53 PM70 °FSunny.10 mph15%29.85 "Hg10 mi
1:53 PM69 °FSunny.13 mph17%29.89 "Hg10 mi
12:53 PM66 °FSunny.10 mph27%29.92 "Hg10 mi
11:53 AM62 °FPartly sunny.8 mph46%29.94 "Hg10 mi
10:53 AM61 °FPartly sunny.7 mph38%29.93 "Hg10 mi
9:53 AM54 °FScattered clouds.No wind55%29.94 "Hg10 mi
8:53 AM51 °FOvercast.No wind80%29.95 "Hg10 mi
7:53 AM48 °FOvercast.6 mph83%29.93 "Hg10 mi
6:53 AM49 °FOvercast.No wind93%29.89 "Hg10 mi
5:53 AM47 °FFog.7 mph97%29.90 "Hg6 mi
4:53 AM49 °FPassing clouds.No wind93%29.87 "Hg9 mi
3:53 AM50 °FPassing clouds.No wind93%29.86 "Hg9 mi
2:53 AM49 °FPassing clouds.No wind97%29.86 "Hg9 mi
1:53 AM48 °FFog.3 mph96%29.86 "Hg6 mi
12:53 AM50 °FPassing clouds.8 mph96%29.85 "Hg8 mi
Weather by CustomWeather, © 2015

See weather overviewHow to use our weather pages